H-2A R/B

Last updated on Fri Feb 06 2026 00:02:16 GMT+0000 (Coordinated Universal Time)

1 43682U 18084L 26036.51776264 .00029673 00000+0 73726-3 0 9993 2 43682 98.8756 247.0647 0026298 133.5764 226.7667 15.39926733400822
UTC large
Height (km)
Speed (km/s)
/
Latitude / Longitude
Inclination (degrees)
Orbital Period (minutes)
Azimuth
Elevation
Range (km)
Doppler Factor

Next 0 passes for location: London (51.5072 / 0.1276)

Sorry there are no passes over London.